Theta_e
308 308 308 308 309 309 309 310 310 310 310 310 310 311 311 311 312 312 313 314 314 314 313 312 311 310 310 310 310 309 309 310 310 311 311 312 312 313 314 313 311 311 311 311 311 311 312 312 313 315 317 318 317 318 318 317 318 318 329 333 322 323 321 317 320 319 319 320 316 315 316 316 316 316 316 317 317 316 316 316 316 318 319 318 318 317 317 315
308 308 308 308 308 309 309 309 310 310 310 310 310 311 311 312 312 313 313 314 314 313 312 311 310 310 310 310 310 309 309 309 310 311 312 312 313 314 314 312 311 311 311 311 312 312 313 313 313 315 316 317 316 317 317 317 317 319 328 330 327 330 320 314 317 315 316 318 315 316 316 316 316 316 316 317 315 316 317 316 316 318 318 316 317 317 318 317
308 307 307 308 308 309 309 310 310 310 310 310 310 311 311 312 312 313 313 313 313 312 311 310 310 310 310 310 309 309 309 309 310 310 312 313 314 314 312 311 311 311 311 311 312 313 314 313 314 315 315 316 317 317 316 317 317 317 324 329 328 326 317 314 315 314 316 317 315 315 315 315 315 316 316 316 314 314 316 317 317 317 317 315 317 317 318 318
308 307 307 308 308 309 309 309 309 310 310 310 311 311 311 312 312 312 312 312 311 310 310 310 310 310 310 310 309 309 309 309 310 310 313 315 313 313 312 311 311 311 312 311 312 314 314 314 314 314 314 315 315 316 317 317 316 315 325 331 323 316 316 316 315 315 316 316 316 315 315 315 315 316 315 314 315 314 315 316 316 316 315 315 316 317 318 319
309 308 307 308 308 308 309 309 309 310 310 310 311 311 311 312 312 312 311 311 310 310 310 310 310 311 310 310 309 309 310 310 311 310 313 314 312 312 312 312 312 312 312 311 313 314 314 314 313 313 314 314 314 316 317 317 316 315 318 320 316 313 317 316 315 316 315 315 316 314 314 315 315 315 314 314 317 317 315 316 316 315 315 315 315 316 317 317
309 308 307 308 308 308 309 309 309 309 310 311 310 311 311 311 311 311 310 310 310 310 310 310 310 310 310 310 309 310 311 312 313 311 312 314 312 312 312 311 312 312 312 312 312 314 314 314 313 313 313 314 315 315 316 315 316 319 315 313 315 315 317 316 315 316 315 315 315 313 315 315 315 315 315 314 315 316 315 316 316 315 315 315 315 315 315 316
310 308 307 308 308 308 308 309 309 309 310 310 310 310 311 310 310 310 310 310 310 310 310 310 310 310 310 309 309 310 311 313 314 313 313 313 311 312 312 312 312 312 312 312 312 313 314 314 313 313 313 314 314 314 316 315 314 320 318 313 315 315 315 316 315 316 316 315 315 315 315 315 315 316 315 314 315 315 316 317 316 316 316 315 316 315 315 315
310 309 307 307 308 308 308 309 309 309 309 310 310 310 310 310 310 310 310 310 310 310 310 310 310 310 310 309 309 309 310 312 314 314 313 312 312 312 312 312 313 312 312 312 312 313 314 314 313 313 314 313 314 314 315 315 313 318 318 314 314 315 315 315 315 315 316 315 315 315 315 315 315 315 315 315 316 316 316 317 317 316 316 315 316 315 315 315
310 309 307 307 308 308 309 309 309 309 309 309 310 310 310 310 310 310 310 310 310 310 310 310 310 310 310 309 309 309 310 312 313 314 313 312 312 312 312 312 312 313 313 312 313 314 314 314 313 314 314 313 314 314 314 315 314 315 316 314 314 314 314 314 314 314 315 315 315 315 315 315 315 315 316 316 316 316 316 316 316 317 316 316 316 316 315 315
310 309 307 307 308 308 308 309 309 309 309 309 310 310 310 310 310 311 310 311 310 310 310 310 310 310 309 309 310 311 313 313 313 314 313 312 312 312 312 312 312 313 313 313 314 314 314 314 314 314 315 314 314 314 314 315 315 315 314 314 314 314 314 314 314 314 315 315 315 316 316 315 314 315 318 317 316 316 316 316 316 316 316 317 316 317 316 315
310 309 308 307 308 308 308 309 309 309 309 310 310 310 310 310 310 311 310 311 310 310 310 310 310 310 309 309 309 312 315 314 314 313 312 312 312 312 312 312 312 312 313 313 314 315 314 315 315 315 315 315 315 315 315 315 316 315 314 315 314 313 314 314 314 314 315 315 314 315 314 314 314 316 317 316 316 316 316 316 316 316 316 316 316 316 316 316
309 309 308 308 308 308 308 309 309 309 309 309 310 310 310 310 311 310 311 311 310 310 309 310 310 310 309 308 309 313 316 315 314 313 311 312 312 312 312 312 312 312 312 313 314 315 315 316 316 315 315 315 315 315 316 316 315 315 316 318 316 317 318 314 314 314 315 315 314 314 314 315 316 316 317 315 315 317 315 316 316 316 316 316 316 316 316 316
309 308 308 307 308 308 308 308 308 309 309 309 310 310 310 310 310 311 311 310 310 309 309 310 310 310 309 308 309 312 314 314 313 312 312 312 312 312 312 312 312 312 312 312 313 314 315 316 315 315 315 314 315 315 316 315 315 316 315 318 321 321 320 314 312 314 315 315 315 313 314 319 319 315 315 315 314 316 315 316 316 316 316 316 316 316 316 316
309 308 308 307 307 308 308 308 308 309 309 309 309 310 310 310 310 311 310 310 310 309 309 310 309 309 308 310 312 311 312 314 312 312 312 312 312 312 312 312 313 313 313 313 313 313 315 315 315 316 315 315 315 314 317 315 315 317 313 319 324 318 320 318 312 314 315 315 315 313 314 321 321 314 314 315 314 315 316 315 315 316 316 316 316 316 316 316
309 308 308 307 307 308 308 308 308 308 309 309 309 310 310 310 310 310 309 309 309 308 309 309 309 309 308 310 313 311 312 312 312 312 312 312 312 312 313 314 314 314 315 314 313 313 314 315 316 316 315 315 315 316 320 319 319 321 314 321 323 315 321 323 313 313 316 315 314 314 316 320 319 314 315 316 315 315 315 316 316 316 316 316 316 316 316 316
309 308 307 307 307 308 308 308 308 308 309 309 309 309 309 309 309 308 309 309 308 308 308 309 309 309 308 310 313 313 312 312 312 312 312 312 312 313 314 314 314 314 315 314 313 313 314 316 315 316 314 315 318 319 323 322 324 325 318 321 322 316 319 321 315 312 314 315 315 314 316 320 318 315 316 316 315 315 315 316 316 316 316 316 316 316 316 316
308 308 307 307 307 307 308 308 308 308 308 308 308 308 307 307 307 307 307 307 307 307 308 309 308 309 309 311 313 313 313 312 312 312 313 312 312 313 315 315 314 314 315 314 314 314 315 315 315 316 315 314 318 322 320 317 320 322 318 319 322 319 318 320 320 314 311 315 317 315 315 320 319 314 315 316 315 315 316 316 317 316 316 316 317 316 316 317
308 307 307 307 307 307 307 307 307 307 307 307 306 306 306 306 306 306 306 306 307 307 308 309 308 310 311 310 313 313 312 312 312 312 312 312 313 314 315 315 314 315 315 315 315 315 315 314 315 319 318 314 317 323 323 321 321 321 320 320 319 318 317 320 321 315 314 316 317 317 316 320 319 313 314 316 315 315 316 316 316 316 316 316 317 316 317 317
307 307 307 307 306 307 306 306 306 306 306 306 306 306 306 306 306 306 306 306 307 309 310 310 308 312 313 311 312 313 312 312 311 312 312 312 314 314 316 315 315 316 315 315 315 314 315 315 316 319 318 317 317 323 328 326 325 326 326 329 325 320 317 318 319 314 313 316 318 318 318 319 320 315 313 314 314 313 314 315 315 315 316 316 316 316 317 317
307 307 306 306 306 306 306 306 306 306 306 306 306 306 306 307 308 308 307 307 309 310 311 311 309 312 313 310 312 313 312 312 312 312 312 313 314 315 316 315 315 316 315 318 317 313 317 320 319 321 319 318 318 322 325 321 321 323 323 327 324 320 318 316 318 313 310 315 318 317 317 317 318 317 312 311 312 310 311 313 313 315 315 316 316 316 317 317
307 306 306 306 306 306 307 306 306 307 307 306 306 306 307 307 309 309 307 307 309 311 312 310 309 312 312 310 313 314 312 313 312 312 314 313 315 315 315 315 316 316 315 316 316 315 321 321 320 325 323 318 318 319 318 315 318 320 322 325 322 319 319 315 316 316 310 313 318 316 316 317 317 316 312 310 310 309 310 311 312 314 314 315 316 316 317 317
306 306 307 307 306 307 307 307 307 307 307 306 306 307 307 307 309 309 307 308 308 311 312 310 309 312 312 311 314 313 312 313 312 313 314 314 315 314 314 316 317 317 314 313 318 322 324 322 322 322 315 313 315 316 317 319 324 325 323 323 320 318 317 315 317 319 314 313 319 321 319 317 316 315 311 309 310 311 311 311 312 313 313 314 315 315 316 316
307 307 307 307 307 307 307 307 307 306 306 306 305 307 307 308 311 309 307 308 308 310 311 310 311 312 313 313 314 313 312 312 313 313 314 314 315 314 314 315 317 318 316 317 322 321 320 323 322 314 309 313 315 314 317 319 322 327 325 320 319 319 318 318 317 317 315 313 316 320 319 316 315 317 317 311 310 312 313 313 313 313 313 313 314 314 315 315
308 308 308 308 307 307 307 306 306 305 305 306 306 308 307 309 311 309 308 309 310 311 311 310 312 312 313 313 313 313 312 312 312 312 313 314 314 313 314 313 315 318 317 319 321 320 321 319 313 310 313 319 316 314 320 320 315 322 332 330 323 320 319 318 317 317 317 316 316 317 318 321 321 326 330 319 310 311 313 314 314 314 315 315 315 314 315 315
312 311 311 309 308 307 306 306 305 305 305 307 309 309 309 310 310 309 310 311 311 311 310 310 312 312 312 313 313 313 312 312 313 312 312 313 313 313 314 312 314 317 317 318 318 320 321 314 311 314 318 321 318 317 324 325 317 316 327 329 322 323 323 320 320 320 320 319 316 314 317 326 328 326 328 321 313 313 311 309 311 315 316 315 316 316 316 316
315 315 314 313 312 309 307 307 306 304 305 308 309 310 310 311 310 309 312 315 314 311 309 310 311 311 312 312 313 313 313 313 314 313 311 312 313 313 314 313 313 314 314 315 316 318 317 312 315 320 321 321 320 318 320 323 320 312 317 321 322 328 326 322 320 318 321 319 314 314 316 321 321 317 318 317 314 315 313 309 310 313 315 314 315 315 315 316
316 316 316 316 314 311 309 309 306 305 306 307 309 309 309 310 309 309 312 314 314 312 310 310 309 310 312 312 312 312 314 315 314 313 312 313 313 313 314 314 312 312 311 313 317 316 315 315 317 321 324 322 319 318 317 321 321 314 317 322 325 328 326 327 325 319 321 318 318 322 321 318 318 315 317 317 316 318 318 318 313 310 313 314 313 314 314 315
317 317 317 318 316 314 313 311 308 306 306 307 308 307 308 310 309 310 315 312 311 312 310 309 309 311 312 312 312 312 313 315 315 314 312 313 314 312 314 314 314 315 311 313 321 316 313 319 319 321 325 321 320 320 317 321 323 316 318 322 324 326 328 333 331 324 321 316 319 324 317 316 322 322 321 316 316 319 321 323 317 309 312 314 314 316 315 315
318 318 318 318 319 318 316 314 311 308 309 308 307 307 308 309 308 311 315 311 309 312 310 309 310 311 312 311 311 312 313 314 314 314 313 313 314 312 313 312 312 314 310 313 324 318 312 316 317 319 323 320 320 319 317 323 323 315 315 320 323 326 328 331 328 322 321 316 319 323 314 313 320 325 325 316 315 320 321 323 316 309 315 317 315 316 315 316
320 319 318 319 320 319 318 318 314 311 311 309 306 307 307 310 312 311 309 310 313 312 308 309 311 311 312 311 311 311 312 314 314 313 313 314 314 312 313 312 311 315 317 317 322 319 311 311 312 315 317 317 316 315 314 317 314 312 320 325 325 327 328 331 330 321 316 318 323 323 316 312 316 325 327 318 317 320 320 322 318 314 318 317 316 316 316 317
319 319 318 318 319 319 320 319 317 313 310 308 307 307 308 314 318 313 306 311 318 313 308 309 311 311 311 312 312 311 312 314 312 313 314 314 314 312 312 313 313 318 320 319 320 318 314 312 312 312 312 312 315 316 313 314 312 315 328 328 320 324 325 328 330 320 314 320 324 322 317 312 313 323 325 319 320 320 317 319 321 319 319 317 317 318 317 318
319 319 318 319 319 319 319 319 319 314 307 308 308 308 312 314 314 314 311 312 317 315 312 312 312 312 311 312 313 313 315 315 312 312 316 316 315 314 314 316 319 317 316 317 319 317 317 317 313 312 312 313 320 322 316 319 321 319 323 321 315 318 320 320 324 321 318 319 317 318 318 314 314 318 319 320 323 321 315 314 316 317 318 318 318 318 317 317
318 318 319 319 318 319 319 319 320 315 309 309 309 312 319 315 310 314 316 314 313 314 313 313 312 312 312 312 313 313 315 316 313 312 314 315 315 315 315 316 317 317 318 320 320 316 318 321 315 313 315 313 318 322 318 321 323 317 317 319 317 318 317 319 321 317 318 318 314 314 316 317 319 318 318 319 317 315 312 311 313 316 318 318 317 317 317 317
315 317 318 318 318 319 319 319 319 317 312 310 313 317 318 313 311 314 315 313 314 314 313 313 312 311 311 312 312 313 314 314 313 313 314 315 315 315 316 313 312 320 324 319 318 317 317 320 319 316 316 315 316 318 321 322 319 317 318 316 318 323 322 320 320 317 316 319 316 313 316 323 323 317 317 314 310 311 313 312 314 315 317 318 316 317 317 316
313 314 316 316 317 317 318 318 318 319 316 313 317 319 313 310 313 315 313 315 318 316 313 312 312 311 312 312 312 312 313 313 313 314 315 315 315 316 316 313 312 320 322 315 316 317 315 318 321 315 312 316 316 314 316 320 319 317 316 314 314 321 321 316 316 319 317 317 317 315 319 325 321 316 315 311 311 313 312 312 314 314 316 316 316 317 316 316
313 313 314 314 315 316 317 317 317 318 318 317 318 316 312 313 317 317 316 317 319 315 311 312 313 313 312 312 313 311 311 315 315 314 315 315 314 315 315 315 312 313 315 314 318 317 315 319 319 313 311 314 314 312 311 314 317 315 314 317 317 316 318 316 313 313 313 314 316 316 318 319 315 315 316 313 315 316 312 312 313 314 316 315 315 316 315 316
314 314 314 314 314 315 316 317 317 317 317 318 318 315 313 316 318 319 319 317 314 313 312 312 313 314 312 312 315 312 311 316 315 313 316 315 314 315 315 315 312 310 312 313 316 318 320 322 316 313 316 313 310 312 310 309 314 317 318 319 315 311 317 321 318 317 316 315 317 316 315 315 314 316 317 313 312 314 316 315 312 313 315 314 315 315 314 316
313 314 314 314 313 314 316 317 318 317 316 317 318 317 317 317 315 317 319 315 312 314 316 316 314 314 313 313 314 313 312 315 314 314 315 314 314 315 315 315 312 310 310 310 312 316 318 319 315 312 316 314 311 314 315 311 311 316 317 315 315 318 320 319 316 318 317 315 320 320 314 313 313 314 315 312 313 316 317 316 313 313 313 313 314 314 314 315
312 313 313 314 314 314 315 317 317 317 316 317 318 316 317 318 314 314 317 316 316 317 316 317 316 314 313 314 315 313 312 314 314 314 315 313 314 314 312 314 313 310 308 309 312 314 314 315 315 312 312 314 313 314 318 317 312 312 313 312 316 321 321 319 317 317 317 316 319 319 314 314 315 316 315 313 317 319 316 317 316 311 310 313 314 314 315 315
311 312 313 313 314 314 315 316 317 316 317 317 316 314 315 315 314 313 315 317 318 318 318 321 320 316 314 314 314 314 313 314 314 314 314 313 313 313 311 312 314 312 309 308 311 315 313 312 314 313 311 313 317 316 316 318 316 315 316 315 316 316 316 319 317 315 318 319 318 316 313 316 317 316 315 314 317 318 315 317 316 310 311 315 314 314 315 315
310 311 312 312 313 314 314 314 315 314 314 313 312 312 313 314 314 313 313 315 316 316 318 322 321 319 317 315 315 314 314 315 314 313 315 312 312 315 313 312 314 313 310 309 312 315 313 313 318 318 315 316 320 318 315 316 316 315 315 315 316 315 315 317 315 314 316 317 319 317 313 315 316 313 314 316 317 315 311 311 312 312 314 315 315 315 316 316
310 311 311 311 312 313 313 313 313 311 311 310 310 311 312 313 315 311 310 313 315 314 316 318 318 320 322 320 319 317 315 316 315 314 316 314 313 316 314 312 312 311 311 312 313 312 312 316 321 321 318 319 319 314 309 312 316 314 315 316 315 315 316 316 317 318 317 315 317 317 314 314 315 314 315 314 312 312 311 310 312 314 315 316 316 316 317 317
309 309 311 311 312 313 313 313 313 312 311 311 311 311 311 313 314 312 311 313 314 315 316 318 317 317 319 319 320 320 316 315 315 315 317 316 313 314 313 311 312 311 311 314 314 310 312 316 317 318 319 321 321 316 310 312 315 313 316 317 316 316 318 319 321 320 319 318 316 316 315 314 313 312 310 308 308 311 314 312 312 315 316 315 316 317 317 317
308 308 310 311 312 313 313 313 313 313 313 312 312 313 313 313 314 314 314 314 315 316 317 318 317 316 316 316 319 321 317 315 316 315 316 316 313 312 311 311 313 313 312 315 315 311 312 317 316 316 317 317 320 320 316 316 316 316 319 320 317 318 317 317 319 316 316 320 318 316 315 314 315 314 311 313 315 313 312 313 314 315 315 315 316 316 316 316
307 307 307 310 312 312 312 312 312 312 313 313 313 313 313 313 314 314 315 314 314 314 315 317 316 315 315 314 316 318 317 317 319 316 316 318 316 313 311 310 312 313 312 312 312 310 315 319 316 314 315 314 316 318 317 318 317 317 322 320 315 317 316 315 317 315 315 319 318 316 314 312 314 316 316 321 323 316 313 315 314 314 315 315 315 316 316 315
306 307 306 306 309 310 310 311 311 311 312 312 313 313 313 314 314 313 314 314 314 314 314 317 316 313 314 315 315 317 317 317 318 318 318 321 319 314 311 310 311 311 311 311 310 313 320 320 314 313 315 314 316 319 318 319 318 317 319 318 315 315 315 315 317 317 315 315 315 315 315 313 314 314 313 318 322 320 315 313 313 314 314 314 315 315 315 315
304 306 305 305 307 308 309 310 310 310 312 312 312 313 313 313 314 314 314 314 314 314 314 315 316 315 316 316 316 318 317 316 316 317 317 318 318 315 312 311 311 311 310 310 310 314 319 318 315 315 314 315 320 322 318 316 317 316 316 317 316 315 315 315 316 315 315 315 315 315 314 314 314 312 313 315 317 317 313 311 312 313 313 314 314 314 314 315
303 303 303 304 307 307 308 309 309 310 311 311 311 312 313 313 313 314 314 314 314 314 314 315 316 316 316 316 316 317 317 316 316 316 317 316 315 315 314 312 312 311 311 311 311 315 320 319 317 315 314 316 320 320 317 315 317 317 316 315 316 315 315 315 315 315 315 315 315 314 315 315 314 311 314 315 313 312 312 311 312 313 313 314 314 314 314 315
301 302 302 303 305 305 305 307 309 309 310 311 311 312 312 312 313 313 314 314 314 314 315 315 315 316 316 316 316 316 316 316 316 316 316 315 315 315 316 315 312 309 311 314 313 314 318 319 319 317 316 316 317 318 317 317 317 317 317 317 316 315 314 314 314 314 314 315 314 314 315 315 313 311 313 313 311 311 312 312 312 312 313 313 313 314 314 314
300 301 302 303 303 303 304 306 308 309 309 310 311 311 310 311 312 312 313 314 314 314 314 315 315 315 315 315 315 316 316 316 316 316 314 313 313 313 314 317 314 310 312 316 315 313 314 317 318 318 319 318 316 317 317 317 317 317 318 319 318 315 313 312 313 313 314 314 314 314 314 314 312 311 312 312 311 311 311 311 312 313 313 313 313 313 313 314
300 300 301 302 303 303 304 304 306 308 309 309 309 310 310 310 311 311 312 312 313 314 314 314 314 314 315 315 315 315 315 314 315 315 313 311 312 312 313 315 315 314 314 315 315 314 314 315 315 317 319 318 316 316 317 317 316 316 318 319 317 315 314 313 313 313 313 314 315 314 314 314 312 312 312 312 311 310 310 311 311 313 313 313 313 313 313 314
299 300 300 301 302 303 304 304 305 306 307 307 308 308 309 309 308 309 311 311 311 312 313 313 313 314 314 314 314 314 314 313 314 314 313 313 313 312 313 313 313 314 315 314 314 315 315 315 316 316 317 317 316 316 316 315 317 317 317 317 315 314 315 315 314 314 313 313 314 314 314 314 313 313 314 313 311 310 311 311 312 313 313 314 314 313 314 314
Wind_Speed
19 20 21 21 21 20 20 21 22 22 22 22 22 23 23 22 21 20 20 19 17 17 14 13 12 12 12 12 12 11 11 11 12 12 11 13 13 14 12 8 8 9 9 10 10 10 10 9 10 11 11 9 6 7 6 4 3 2 2 3 1 2 2 4 6 6 4 5 7 12 14 10 5 7 10 9 9 13 10 8 10 10 9 8 6 8 15 21
19 19 21 22 22 21 21 21 22 22 22 22 22 22 22 21 20 20 19 18 16 15 14 13 12 12 12 12 12 11 10 10 11 12 12 12 13 13 12 9 9 10 9 10 11 10 11 10 11 12 10 7 5 7 7 4 4 2 2 3 2 5 2 2 4 6 3 6 12 14 14 12 9 12 13 7 6 10 8 6 9 10 11 10 9 12 15 19
19 19 21 22 22 22 21 21 21 22 21 21 21 21 21 20 19 19 18 17 15 14 13 13 12 13 13 13 12 10 10 10 11 13 12 12 13 11 10 10 10 10 10 11 12 12 11 11 11 11 8 6 5 7 7 4 4 1 3 3 4 6 3 1 1 4 5 10 16 13 13 11 9 14 12 8 7 7 7 8 9 11 13 12 12 14 16 18
19 19 21 22 23 23 21 21 21 21 21 21 21 20 19 19 18 17 17 15 15 14 13 13 13 14 14 13 11 10 9 7 9 14 13 11 12 11 10 10 10 11 11 11 13 12 10 9 10 10 6 4 4 5 6 5 5 2 4 3 5 5 3 1 1 0 5 14 17 14 12 7 8 14 12 10 8 3 10 16 13 14 17 16 16 16 16 18
20 20 21 23 24 24 22 21 21 22 21 20 20 19 18 18 17 16 15 15 14 14 14 13 14 14 14 13 11 11 9 3 7 15 14 11 11 10 10 10 11 11 11 12 12 11 9 8 9 9 5 3 4 3 4 6 6 3 2 2 4 6 3 1 1 2 6 13 14 13 10 7 9 11 12 13 9 7 14 18 16 14 16 17 17 18 18 19
19 20 22 24 24 24 24 22 22 22 21 20 19 18 18 17 16 15 15 15 14 14 14 14 15 15 14 13 11 12 10 2 7 16 14 12 11 10 11 10 11 11 11 12 12 12 9 8 9 9 6 2 4 4 4 8 6 3 1 1 3 5 4 4 3 3 8 12 12 12 9 9 10 7 11 15 12 11 10 13 15 14 14 16 17 19 20 20
19 20 21 23 25 25 25 24 23 22 21 20 19 19 18 17 16 15 15 15 15 14 15 15 15 16 15 14 12 12 11 3 6 15 14 12 11 11 12 11 11 11 11 11 11 12 11 9 9 9 6 3 4 4 5 7 5 4 2 1 2 3 5 6 5 5 8 12 11 11 9 10 10 5 7 14 17 13 6 6 11 15 16 17 18 20 20 19
20 20 20 22 24 25 26 25 23 21 20 20 19 18 17 17 16 15 15 15 15 15 14 16 16 16 14 13 11 9 12 6 5 13 14 13 12 13 12 11 12 11 12 11 10 12 12 10 8 7 4 2 5 6 6 6 3 3 3 3 3 3 4 4 5 6 7 9 9 9 8 8 9 4 5 12 15 13 10 7 7 12 17 19 20 20 20 20
20 20 21 21 23 24 26 25 23 21 19 19 18 18 17 16 16 15 15 14 15 15 15 16 16 17 14 13 10 6 10 9 4 12 15 14 14 14 13 12 12 11 12 11 10 13 12 9 8 6 2 3 7 6 7 5 0 2 7 7 5 3 4 4 5 5 5 6 7 6 3 3 6 2 7 14 15 14 14 11 9 10 13 17 18 19 20 21
21 20 21 22 22 23 24 24 23 21 19 19 18 17 16 16 15 15 15 14 14 14 15 16 16 16 14 12 10 5 10 10 6 12 16 15 16 15 13 12 12 11 11 12 12 12 11 8 8 7 3 5 8 5 4 5 3 7 11 9 6 4 3 3 4 5 4 4 4 5 1 1 4 1 6 10 10 15 17 15 14 12 12 14 16 18 19 20
21 21 22 22 23 23 23 23 22 22 20 19 18 17 17 16 15 14 14 14 14 14 15 16 17 16 13 12 11 7 8 10 9 13 17 16 16 15 13 12 11 12 11 11 12 11 9 7 8 8 4 5 7 5 4 6 9 14 14 8 5 3 1 1 3 5 4 3 2 4 2 1 2 2 11 11 5 12 18 18 17 16 15 15 16 17 19 21
22 22 23 23 23 23 22 22 22 22 21 19 18 17 16 15 14 14 14 14 14 14 15 16 16 15 13 12 13 9 6 8 11 14 17 17 16 14 13 12 11 12 11 11 12 10 9 8 8 6 5 9 7 4 5 9 13 13 11 5 5 7 2 2 3 4 4 2 2 3 1 3 2 8 16 9 4 8 16 20 19 18 18 17 18 19 20 21
23 23 23 23 23 23 22 22 22 22 21 19 18 16 16 15 14 14 14 14 14 15 15 15 16 15 13 10 12 11 5 7 12 15 18 17 15 14 12 12 11 11 12 11 11 11 9 8 6 6 9 10 5 6 8 9 11 8 4 4 2 6 4 3 2 3 4 2 3 4 1 6 6 16 18 8 5 9 15 21 22 21 20 19 19 20 21 22
25 24 24 24 23 22 22 22 21 20 20 18 17 16 15 14 14 13 13 14 14 15 14 15 15 14 12 7 8 11 8 7 12 16 18 17 14 12 11 11 11 11 11 10 11 11 9 7 6 8 9 9 9 11 7 4 5 3 1 2 3 2 3 5 1 5 5 1 3 4 2 6 8 13 13 10 11 11 16 20 21 22 21 20 20 21 22 22
25 25 24 24 23 23 22 22 21 20 19 18 17 16 15 14 13 13 13 14 14 14 14 15 15 12 10 6 5 10 9 9 14 17 17 16 14 12 11 11 11 12 10 10 11 11 10 9 8 8 9 10 13 10 4 4 3 3 2 2 3 3 4 7 2 7 5 2 2 4 1 6 8 9 4 4 8 12 16 17 19 21 21 21 22 22 23 23
25 25 24 24 24 23 21 20 19 19 19 18 17 16 15 14 14 13 13 13 13 14 14 14 15 11 6 4 6 9 11 12 14 17 17 16 13 11 11 11 11 12 10 10 10 11 12 9 8 9 9 9 9 6 4 4 3 4 3 2 2 2 2 5 2 5 4 2 0 2 2 3 4 3 3 4 4 11 14 15 17 19 20 21 22 23 24 25
24 24 24 25 25 23 21 20 20 20 19 18 18 16 15 15 14 14 14 14 13 13 13 13 14 11 4 4 7 10 13 14 15 16 16 15 13 11 12 11 11 12 12 12 11 11 11 8 8 6 4 5 4 5 5 1 2 2 2 1 3 3 3 2 3 3 2 2 1 1 2 6 6 7 6 2 2 8 12 15 17 18 20 21 22 24 25 26
24 25 25 25 25 23 22 21 20 19 18 18 17 16 16 15 14 14 14 15 14 13 11 11 13 8 5 8 9 10 15 15 16 17 16 15 13 13 13 11 12 13 13 11 9 8 7 5 6 3 3 4 2 5 4 4 5 5 2 2 2 2 3 3 3 3 2 2 2 1 2 10 11 12 17 16 11 11 15 18 19 20 23 24 24 27 27 28
26 26 26 26 25 24 22 21 20 19 19 18 17 18 16 15 15 14 15 17 15 10 5 11 16 5 2 12 13 11 15 15 17 17 16 16 14 14 13 12 14 15 12 7 4 5 5 4 5 3 1 2 4 5 6 7 8 8 6 5 4 3 3 5 4 4 1 3 3 5 5 9 11 11 16 22 17 13 18 21 24 26 27 28 28 30 30 31
27 26 26 26 25 24 23 22 21 20 20 19 20 20 17 15 11 7 14 18 14 6 0 13 21 4 2 14 18 14 15 15 17 19 18 17 16 14 13 13 12 10 7 5 3 2 4 4 3 4 6 6 7 7 6 5 6 7 6 5 4 4 2 3 3 5 2 3 5 5 5 8 11 10 15 23 16 10 17 22 26 29 30 31 30 31 32 33
26 25 26 25 25 24 23 23 21 21 21 19 23 20 15 18 10 4 14 14 12 5 1 14 22 7 1 13 19 16 16 14 16 20 19 18 17 13 11 10 7 4 1 4 5 2 4 4 5 7 8 7 6 6 7 6 5 5 6 5 3 2 2 2 2 4 3 1 4 4 4 9 11 10 16 21 14 12 20 23 27 32 32 32 32 32 33 32
22 23 24 23 24 23 22 23 21 23 22 21 25 17 14 21 13 12 17 9 10 7 1 15 20 8 4 11 16 16 14 10 11 19 19 18 17 11 9 7 5 3 1 4 6 4 4 2 8 8 6 5 5 5 7 6 5 5 4 4 2 1 2 3 4 5 4 1 4 5 6 10 11 10 14 19 18 21 24 23 27 31 31 32 33 34 34 33
19 19 20 20 21 22 22 22 21 23 23 23 25 16 14 20 13 15 18 6 8 9 4 14 15 9 9 12 15 15 12 8 9 18 20 19 17 11 10 7 4 4 3 4 6 4 2 4 8 6 6 8 6 4 7 6 4 4 4 4 2 2 1 1 4 5 3 2 2 4 6 9 8 6 11 18 21 23 23 21 25 28 29 33 34 33 32 32
18 17 16 17 18 20 21 21 22 23 24 24 22 15 15 18 12 17 15 4 4 8 8 12 11 11 11 11 15 14 11 9 9 18 22 20 17 10 9 8 5 5 3 5 8 7 4 5 3 7 6 7 7 4 6 6 2 2 3 5 3 2 3 3 2 2 3 4 3 4 5 7 5 4 7 9 9 13 15 15 19 22 24 28 31 31 31 31
18 17 16 16 15 17 20 21 22 23 25 24 18 14 16 15 13 16 10 4 2 4 8 11 9 11 11 10 14 13 9 8 8 17 23 21 17 10 6 7 6 4 5 6 8 5 5 4 5 8 4 5 7 2 3 6 2 3 2 5 6 6 6 2 2 4 4 5 3 4 4 6 5 5 7 7 6 10 11 11 19 25 23 23 25 26 27 27
19 19 18 16 15 16 18 17 21 23 24 23 17 16 17 15 15 16 7 4 1 2 5 9 7 10 12 11 15 13 7 4 7 17 23 20 16 10 6 4 3 3 6 6 5 2 2 0 5 7 5 6 6 2 3 5 6 1 3 5 7 7 7 4 2 3 1 2 3 4 3 5 7 5 8 8 8 11 11 12 21 29 28 26 26 26 25 24
17 19 19 17 16 16 15 15 20 22 22 22 18 17 17 15 17 15 6 5 3 4 7 7 7 10 12 13 18 12 4 5 7 13 21 19 14 10 6 3 2 2 5 5 2 2 2 3 5 6 6 6 5 3 4 6 8 3 3 6 8 8 7 5 5 3 2 3 4 4 4 2 7 7 6 5 7 9 11 12 17 23 25 24 24 24 23 21
16 17 18 18 16 15 14 15 18 19 20 23 21 17 15 15 17 12 6 3 2 5 6 6 7 10 12 17 19 10 7 12 8 8 19 19 13 8 4 5 6 4 3 6 4 4 1 4 5 6 6 4 4 4 5 8 6 4 4 7 6 7 7 5 6 3 1 2 5 4 2 2 6 7 5 3 4 8 11 11 12 18 20 17 15 15 13 12
18 16 16 17 16 16 17 16 16 17 18 21 22 18 13 15 14 8 4 1 3 3 3 7 9 9 12 14 11 6 9 8 4 9 18 15 11 5 2 6 8 6 4 5 6 3 1 3 5 7 6 4 4 2 3 5 4 4 6 7 5 6 6 5 5 3 2 2 5 6 4 3 6 7 5 2 2 7 9 9 9 14 14 9 7 5 4 5
21 18 17 17 17 18 19 17 16 15 15 17 20 19 16 13 9 6 2 3 2 2 2 7 8 8 13 10 2 2 5 2 5 13 12 8 9 6 5 6 6 7 5 6 4 2 2 0 1 4 3 5 5 3 2 3 6 9 7 7 6 6 5 4 3 4 2 3 6 7 7 4 4 6 4 3 4 6 5 6 8 10 9 4 2 3 5 4
23 20 16 17 18 18 17 16 15 15 16 18 18 20 17 8 4 4 5 3 2 2 3 3 3 6 13 10 3 1 2 3 6 12 7 3 5 4 6 5 3 5 3 4 3 4 4 3 1 1 2 6 8 6 6 5 6 8 5 5 4 4 4 4 4 4 1 5 6 5 2 3 4 6 5 5 7 6 5 6 7 9 7 2 4 5 5 4
19 19 16 15 16 15 13 13 13 15 17 19 22 21 13 4 1 4 4 1 2 3 4 4 3 5 9 6 4 4 3 2 3 6 5 3 4 4 4 5 4 4 1 3 1 3 2 1 3 2 1 4 7 5 5 5 5 6 5 6 4 2 3 3 3 0 3 6 4 3 0 2 6 7 7 9 10 7 8 8 8 9 4 3 5 3 2 3
12 15 15 15 14 13 12 12 11 13 17 20 22 15 7 3 6 5 2 1 1 2 4 4 3 6 9 7 4 4 3 2 4 3 2 3 4 4 3 2 5 5 3 4 4 1 1 5 3 1 1 4 6 6 3 0 1 5 5 6 4 2 1 3 4 2 4 5 3 3 1 3 5 5 8 11 10 6 6 8 10 8 4 1 0 2 3 4
11 12 13 13 13 13 13 12 11 12 15 18 16 8 5 5 5 3 3 3 1 2 2 4 6 7 7 5 4 5 3 1 4 4 2 4 4 5 4 3 3 4 4 4 3 5 4 4 4 4 2 6 6 5 7 6 4 4 4 6 5 5 5 4 3 3 4 3 3 3 1 3 3 3 7 10 11 10 9 9 8 7 8 7 7 7 6 7
13 12 12 13 13 13 11 11 12 12 13 13 8 4 6 7 3 3 5 4 1 3 3 4 8 8 4 0 2 5 3 2 4 4 3 5 5 6 5 5 5 4 5 5 2 3 3 4 6 2 2 9 8 5 7 7 2 2 3 5 3 5 5 2 3 5 3 2 3 2 3 5 4 6 9 10 12 12 11 11 8 9 10 10 12 14 12 9
12 12 13 15 15 14 13 12 11 11 12 9 5 4 6 4 3 4 4 3 4 5 6 5 4 5 4 1 1 5 1 2 4 3 2 3 2 5 5 4 7 7 6 6 3 2 2 4 6 2 1 4 5 4 5 4 3 2 3 3 5 4 6 3 2 0 3 2 4 1 5 6 3 7 9 6 8 9 9 10 11 12 13 14 18 19 15 10
14 13 14 16 16 14 14 13 12 13 13 6 3 6 3 1 3 3 1 2 6 8 9 5 2 4 5 3 3 6 2 2 4 3 3 2 2 5 5 4 6 10 8 5 2 3 5 2 5 1 2 3 1 4 2 3 4 5 3 6 3 2 4 4 2 3 3 3 4 1 6 6 2 5 5 4 4 8 7 8 10 13 15 16 19 20 19 15
14 14 14 16 16 15 15 13 13 16 13 5 4 6 1 1 2 1 2 2 6 6 5 5 3 4 6 5 4 6 4 3 5 4 4 3 4 6 8 4 6 13 14 8 2 3 5 2 5 1 3 3 3 3 1 4 4 5 4 5 4 2 1 2 2 2 1 3 5 4 5 5 5 7 0 4 5 8 7 7 7 10 15 19 20 21 23 20
13 11 11 14 17 17 16 14 15 16 11 4 6 6 1 1 3 1 3 2 3 4 4 4 3 2 5 6 5 5 6 6 7 5 4 4 4 5 9 7 5 12 18 13 5 2 4 3 4 2 1 1 3 2 4 0 3 4 3 3 3 2 4 3 3 3 3 3 3 3 4 4 6 6 6 6 7 7 7 8 7 12 17 18 18 19 20 16
13 9 6 13 17 16 16 16 16 14 6 3 4 2 1 0 4 2 2 2 2 2 2 3 2 3 5 4 3 4 5 5 7 6 3 5 4 3 6 7 4 6 13 12 6 2 3 3 4 3 3 1 2 3 7 8 5 3 4 4 2 1 2 2 1 2 4 4 3 2 5 6 5 4 8 9 9 8 9 8 9 13 14 13 14 15 13 7
13 5 4 13 16 16 17 14 10 6 2 2 2 1 1 0 2 1 3 3 3 3 2 2 3 3 4 3 3 4 4 4 6 6 3 5 5 3 4 5 5 7 7 6 5 4 3 3 4 2 1 3 6 5 6 10 9 7 7 8 7 5 4 2 3 1 2 3 4 3 6 10 5 5 7 8 8 9 9 8 9 12 12 10 10 7 4 4
12 3 4 14 17 18 18 8 2 3 2 2 2 3 4 1 1 0 2 2 2 3 2 3 1 2 3 2 2 3 5 4 5 5 4 5 6 4 1 2 5 12 11 4 5 6 3 4 4 3 3 5 7 5 3 5 3 2 3 5 6 5 5 6 6 4 1 2 3 4 4 10 4 5 6 7 8 8 8 8 7 8 8 5 3 2 2 4
10 5 7 14 18 21 17 4 2 4 2 4 4 5 8 5 1 2 3 2 2 1 1 1 1 2 1 1 2 3 3 4 5 5 4 4 4 2 2 2 5 11 10 3 2 4 3 3 3 2 3 3 5 4 3 2 0 2 2 2 4 4 4 5 5 4 3 4 3 3 5 9 3 1 4 4 5 5 4 4 4 4 4 3 4 3 3 5
9 6 7 13 21 24 14 3 4 6 3 5 5 5 9 8 5 6 5 4 4 2 1 1 2 3 2 1 3 2 2 3 3 3 2 2 3 0 5 3 5 8 5 2 3 8 6 2 4 3 2 3 4 3 3 3 0 3 3 3 6 6 5 4 2 3 3 7 8 6 8 9 3 2 1 3 3 1 2 2 2 3 4 3 4 5 5 6
8 5 4 10 20 22 11 2 4 6 5 6 6 6 7 5 8 13 10 7 8 6 2 2 3 3 3 3 3 0 2 4 1 1 1 0 1 1 6 5 5 6 3 1 3 9 8 3 5 6 6 7 5 4 5 2 2 2 4 7 9 9 10 6 3 4 5 8 8 6 9 10 4 1 2 5 6 4 4 3 2 4 5 5 6 6 4 7
6 3 2 5 11 15 11 7 5 4 6 7 4 5 8 4 5 13 13 9 12 11 5 3 4 4 3 3 3 3 3 3 3 0 1 0 2 2 4 6 6 5 3 3 3 5 4 2 7 10 10 11 8 7 5 6 7 6 7 9 9 10 12 8 4 6 9 8 5 7 11 13 13 9 5 6 4 2 4 6 8 11 10 8 9 8 10 13
5 2 3 4 4 7 8 9 8 4 5 9 5 3 9 7 2 6 10 8 11 14 6 2 5 5 5 6 5 4 4 3 3 1 2 2 3 2 1 3 4 2 2 3 3 4 3 2 6 9 10 7 5 5 5 8 11 12 12 12 12 11 12 11 10 12 9 5 7 13 12 11 19 16 9 9 7 4 6 12 15 17 14 12 13 15 17 20
4 1 3 4 2 3 4 7 10 6 4 8 6 3 8 10 6 6 7 4 6 10 6 2 6 8 9 10 6 3 5 4 3 4 3 3 3 1 2 2 2 1 1 2 2 3 4 3 4 4 4 2 2 2 5 8 7 7 10 13 13 13 15 16 18 17 11 8 13 17 11 11 21 17 7 8 9 7 9 12 11 11 12 13 17 21 24 25
4 2 3 3 2 0 1 5 11 8 6 6 4 4 8 11 11 8 6 3 3 8 9 6 8 11 10 10 8 5 6 6 6 7 5 5 4 2 1 2 1 2 2 2 2 2 3 2 1 3 1 1 3 2 5 7 2 1 6 9 10 13 17 18 18 17 13 11 15 15 8 12 18 8 2 9 12 11 13 12 11 13 16 19 22 24 26 26
5 3 3 2 1 1 3 5 10 7 6 6 4 4 6 9 12 9 6 7 5 5 9 11 10 10 9 9 9 8 9 10 8 8 8 6 2 1 2 2 1 2 3 2 1 2 2 2 1 3 1 2 5 5 4 6 4 3 6 7 8 10 11 11 11 10 8 9 14 13 11 15 12 3 7 17 15 11 14 15 15 18 19 20 23 24 23 23
9 7 5 1 1 2 0 3 6 4 4 6 6 6 7 9 10 7 5 11 12 7 10 15 11 6 7 9 9 11 13 14 12 10 12 13 9 8 7 5 5 3 1 1 1 2 2 1 2 4 1 4 5 6 5 4 3 3 9 13 12 9 6 7 8 8 10 11 12 10 11 14 8 2 11 19 9 7 14 15 14 17 19 21 24 22 20 20
15 11 9 3 2 1 2 2 4 4 4 7 9 8 7 6 7 7 4 10 17 18 18 18 13 6 5 9 14 21 21 18 16 14 13 17 19 17 16 14 12 10 4 3 2 1 3 3 1 3 3 4 4 7 6 5 2 6 12 14 14 9 6 6 7 8 10 10 9 9 11 13 7 3 8 13 7 9 17 16 12 13 16 18 20 19 18 19
Wind_Direction
181 180 175 171 174 177 182 188 186 183 180 175 175 176 175 175 175 174 177 179 180 182 185 188 193 195 193 191 193 197 199 199 195 194 196 191 186 184 188 188 180 177 173 173 167 163 160 148 157 166 165 161 161 177 176 178 172 165 118 91 130 186 175 175 186 200 170 163 186 184 174 157 149 153 144 143 154 152 156 170 166 171 162 163 178 162 165 166
181 183 180 172 172 176 181 188 187 183 181 178 177 179 177 174 176 178 179 181 183 184 188 190 192 195 191 188 191 195 197 196 194 195 192 186 180 180 188 186 178 176 174 173 165 159 153 148 155 160 164 159 153 172 173 185 166 119 100 99 200 209 193 190 191 198 183 169 176 177 178 173 170 163 150 143 156 150 146 156 166 173 165 161 163 162 171 173
181 184 182 175 171 175 181 187 188 185 183 180 180 182 177 176 179 181 181 182 184 186 189 191 191 193 188 186 189 190 193 195 198 196 187 183 182 179 180 179 177 175 175 173 165 158 153 153 157 156 163 161 154 169 165 173 179 134 93 105 232 212 187 317 163 200 226 182 168 170 179 183 180 171 165 164 166 167 177 174 176 186 182 176 171 169 176 180
183 183 183 179 173 173 179 186 189 187 184 181 183 184 179 179 183 184 184 185 187 188 189 190 191 190 186 184 184 186 185 191 207 195 184 183 185 181 176 176 175 175 178 175 169 162 154 154 164 165 165 170 163 171 175 173 180 147 113 159 218 181 143 316 77 306 215 177 168 167 169 186 188 178 179 163 148 233 221 201 205 209 197 185 180 179 181 185
186 186 186 184 176 171 176 184 189 187 184 183 184 185 184 183 186 189 188 188 190 190 189 189 190 187 184 182 180 179 168 158 206 190 183 185 182 179 177 175 174 174 178 179 176 169 160 154 167 174 171 171 151 155 192 172 150 103 108 193 171 154 147 185 132 92 169 169 165 160 160 187 182 179 190 173 164 226 225 217 225 225 211 200 192 189 188 191
190 189 189 188 178 171 176 183 188 189 184 184 186 187 187 187 189 191 192 191 192 191 189 188 187 186 182 182 179 174 170 148 190 184 183 183 176 176 177 174 172 172 179 183 185 181 175 162 162 173 168 149 160 157 175 170 150 112 243 263 135 169 170 161 159 144 175 168 156 162 171 175 164 182 203 194 205 223 230 231 230 230 224 215 206 198 196 197
194 192 192 191 182 174 176 181 188 190 186 184 187 189 189 191 190 192 194 192 192 192 190 187 186 185 181 182 180 181 194 207 173 180 180 176 176 176 172 169 168 171 177 180 188 186 183 176 167 167 148 110 174 174 154 160 143 116 175 233 118 151 148 151 155 137 170 167 154 164 170 172 170 183 207 212 224 227 232 223 217 224 225 219 211 208 207 206
198 194 193 193 188 180 177 180 187 189 187 186 187 190 191 192 192 192 194 194 194 191 190 187 184 185 182 183 182 188 210 215 168 177 176 174 177 173 168 166 166 170 175 176 183 181 180 180 172 166 147 131 179 173 147 133 86 95 148 186 139 124 142 147 158 136 145 153 146 155 162 180 187 191 230 229 229 221 219 209 194 208 218 221 218 217 215 212
200 196 192 192 192 188 181 179 183 186 187 188 188 189 191 193 195 194 195 197 194 191 190 187 184 184 183 184 180 188 209 207 182 177 175 177 177 173 170 167 168 170 174 176 177 179 181 179 178 182 185 181 164 154 150 138 253 168 147 162 150 129 141 140 166 152 136 145 145 156 155 181 191 248 264 245 238 224 219 214 205 204 211 216 218 221 218 214
200 196 193 190 191 193 188 180 179 183 186 189 189 189 191 194 197 197 196 197 195 193 189 186 186 185 185 184 178 187 202 197 183 176 177 179 178 176 175 174 174 172 176 180 177 177 178 173 178 177 151 152 147 128 143 145 169 155 133 130 123 122 141 138 170 163 147 142 151 170 152 189 181 198 257 250 240 222 216 211 215 219 217 213 213 217 216 215
201 197 194 191 190 193 191 184 179 181 186 190 189 190 191 194 197 198 198 197 197 195 190 188 186 185 187 187 187 193 197 193 184 179 180 181 180 180 182 184 184 181 185 189 184 180 176 165 165 170 153 145 141 102 107 130 139 140 127 101 53 61 141 174 155 161 161 128 151 157 120 243 140 175 247 250 237 220 216 213 217 222 223 220 218 218 218 219
201 198 194 191 191 192 190 187 183 183 185 189 191 192 192 194 197 199 200 198 197 194 192 188 185 186 187 191 202 200 186 188 184 182 183 182 182 183 186 189 191 191 194 196 192 185 180 169 164 175 156 145 139 95 114 133 135 134 122 96 355 8 15 234 166 168 175 134 171 133 74 278 201 222 241 240 230 228 217 216 219 222 227 226 225 226 226 228
200 197 194 190 190 191 189 188 186 185 185 187 190 191 191 194 196 198 200 198 196 194 191 188 185 187 185 194 210 202 193 189 183 184 184 183 183 184 188 191 192 193 195 199 194 185 181 178 176 167 144 141 132 117 129 129 132 134 104 99 27 11 349 255 179 176 167 140 186 137 235 275 247 235 236 235 257 238 214 216 219 222 229 230 231 232 234 237
199 196 193 188 187 189 189 188 187 185 183 184 186 189 191 192 194 198 199 196 194 191 189 187 183 184 188 198 210 203 207 193 183 185 184 182 181 180 184 187 187 187 190 192 186 183 176 165 168 153 134 136 129 121 111 83 111 124 79 69 64 95 276 289 202 164 148 187 216 119 184 262 275 262 250 253 258 231 215 218 218 222 227 231 235 237 242 243
198 194 190 185 184 187 189 186 184 183 181 181 182 186 188 188 192 195 197 195 191 189 187 186 183 182 190 203 209 203 202 189 182 183 183 181 177 174 175 176 179 179 178 177 175 174 162 152 155 135 116 128 128 116 67 20 37 48 97 317 345 148 259 306 231 173 156 205 209 104 194 263 281 289 306 271 234 210 220 226 220 224 227 232 239 243 248 250
196 191 186 181 180 183 186 184 182 182 180 179 180 183 185 184 187 189 192 190 186 186 184 183 183 178 180 196 200 194 189 185 180 181 182 178 174 171 166 163 167 170 165 161 163 162 160 154 133 116 115 128 123 100 66 40 355 4 99 202 274 154 255 312 260 209 179 165 33 96 216 265 282 262 65 61 186 202 223 233 227 230 233 237 244 249 253 256
192 185 181 176 176 179 181 182 181 180 178 178 177 178 179 178 179 181 182 179 177 179 180 180 178 179 197 199 190 187 185 183 178 178 178 173 173 169 159 155 156 158 153 149 152 153 156 149 129 124 105 103 103 94 89 41 273 293 40 158 226 175 181 276 285 259 137 139 262 43 220 251 263 260 266 289 240 223 232 240 239 237 241 244 249 253 256 258
182 178 176 173 172 174 178 179 178 178 176 175 173 173 173 171 171 174 172 169 163 160 170 175 167 171 235 206 188 187 186 181 177 174 171 169 169 163 156 152 152 151 143 141 146 143 140 126 120 121 40 65 103 99 117 208 191 190 184 153 226 196 190 238 253 247 86 95 233 132 242 259 266 274 271 268 267 255 247 251 255 253 252 252 253 256 258 259
173 173 172 170 171 172 175 176 175 175 173 171 170 167 165 161 159 165 168 165 158 149 166 180 170 159 250 191 183 184 182 178 176 173 169 168 163 158 154 148 152 149 139 132 129 128 121 96 93 112 142 159 181 147 164 199 171 168 172 146 162 172 225 242 251 270 113 115 236 219 226 259 270 280 277 274 274 259 254 258 260 260 259 257 255 257 259 259
168 169 169 169 170 171 171 173 173 173 172 172 169 162 157 151 139 150 172 169 166 158 253 184 181 188 32 173 177 176 171 171 176 174 170 170 163 154 148 146 147 136 131 140 137 118 99 104 140 185 195 189 192 176 153 158 139 134 123 106 141 155 240 259 278 311 53 140 257 250 241 263 268 272 274 276 280 256 251 256 257 260 259 257 256 256 257 257
163 165 168 169 170 170 170 171 172 172 172 173 170 164 162 160 146 159 174 175 183 181 39 179 184 205 114 169 175 169 163 165 176 177 172 171 163 154 153 148 130 106 117 132 120 86 79 122 206 218 206 186 182 168 124 106 92 95 116 112 90 129 230 266 280 308 19 130 276 332 306 270 262 265 271 275 278 252 244 244 250 256 256 257 256 255 256 257
162 166 168 170 171 169 170 171 171 172 172 174 174 171 174 173 172 176 169 171 192 184 139 177 185 202 167 167 172 166 161 157 174 180 174 170 166 164 166 145 112 129 150 101 97 48 54 180 235 226 192 131 114 131 114 100 87 81 109 118 101 166 243 302 312 317 15 107 276 350 336 276 262 258 265 265 261 259 255 248 252 257 257 257 256 256 258 260
161 166 169 171 171 171 171 171 171 172 172 174 177 179 180 177 176 173 165 148 179 180 165 177 189 192 160 162 172 170 166 154 171 181 176 172 172 169 163 142 111 134 127 124 128 106 108 242 240 200 145 102 86 103 107 94 81 85 104 122 196 244 148 281 304 314 358 48 277 339 321 282 278 276 267 261 257 264 269 263 260 259 258 259 260 261 262 263
157 158 164 169 173 174 172 172 172 172 173 173 178 184 180 179 174 166 160 100 154 183 183 182 193 191 169 163 175 176 173 166 173 180 178 177 172 165 167 152 118 130 155 151 138 142 199 250 185 128 113 107 100 81 107 118 56 0 128 137 178 196 161 193 286 316 348 7 15 13 327 290 307 328 287 277 272 272 276 277 274 265 259 260 260 260 260 261
150 149 153 158 167 175 173 173 174 174 174 171 174 177 172 177 173 161 151 69 116 192 190 188 197 195 185 173 177 173 165 166 172 179 182 180 171 161 167 155 133 164 181 141 126 151 233 250 138 118 82 94 112 111 149 144 98 325 230 171 168 161 152 161 12 39 34 352 334 26 354 288 311 318 277 292 315 288 288 297 287 278 270 262 258 256 257 259
149 147 146 147 154 168 170 172 175 176 176 171 165 162 162 165 165 162 138 54 280 223 174 185 190 190 192 182 170 156 150 180 175 180 182 180 176 162 152 151 123 176 174 138 124 170 231 137 113 125 116 96 101 139 197 140 107 302 241 164 145 126 119 128 95 65 80 260 295 50 99 267 302 285 255 276 290 287 297 297 279 272 267 262 260 260 261 263
154 147 143 141 144 158 162 167 177 177 177 176 165 153 154 154 158 164 125 38 271 187 149 178 180 179 188 177 166 152 150 173 151 174 180 177 181 170 163 180 106 154 165 130 130 225 167 100 74 91 100 97 109 164 207 133 114 233 231 130 127 118 124 142 115 99 218 246 319 17 117 235 291 266 249 285 298 296 293 282 274 271 270 270 270 269 270 271
163 153 142 139 140 149 151 160 174 175 178 181 173 158 150 149 153 154 115 60 215 150 140 177 169 172 177 170 170 158 139 151 137 173 178 174 182 171 165 198 166 152 139 123 172 258 149 152 160 123 95 112 169 212 201 126 103 243 200 126 134 128 129 126 105 102 1 0 311 312 127 207 271 274 296 325 295 290 280 270 274 280 284 286 282 277 274 270
171 167 152 142 137 139 140 144 158 170 181 182 178 173 155 146 146 125 90 156 168 109 127 162 159 170 165 158 169 151 133 146 131 164 171 172 182 166 136 195 166 124 61 95 165 237 30 176 188 138 123 182 199 252 204 132 101 178 142 98 78 73 82 81 93 111 41 5 256 232 178 205 268 283 306 337 249 259 267 271 277 286 295 297 282 261 224 226
175 175 165 151 142 139 135 134 140 155 173 176 178 177 159 145 134 107 137 213 160 80 99 152 165 167 154 142 134 130 128 113 115 142 156 165 172 154 124 159 141 106 41 35 102 241 326 71 132 104 137 174 145 74 57 114 129 132 104 62 46 27 37 44 54 87 64 292 254 225 194 195 272 280 258 219 221 225 251 286 293 302 318 321 238 147 142 173
177 177 170 154 149 146 137 135 132 136 154 163 165 164 154 134 93 125 187 211 123 99 86 139 182 157 154 150 140 152 82 52 131 141 142 142 154 143 121 136 104 86 38 24 54 317 350 59 4 19 124 128 105 63 37 52 101 109 82 70 61 346 11 18 359 46 131 253 266 270 211 164 234 262 259 252 255 238 228 262 297 315 331 53 128 135 135 159
177 176 174 164 161 158 149 143 132 130 145 152 155 157 146 106 142 185 198 178 131 179 165 168 201 164 157 141 131 159 109 86 161 147 144 145 157 173 158 167 151 104 222 204 133 330 0 13 303 340 168 148 108 71 34 16 41 79 90 97 88 332 6 349 309 17 231 244 275 312 322 199 234 247 263 268 266 246 215 234 295 316 307 109 111 128 151 201
186 181 182 183 178 172 165 156 141 136 142 148 153 151 115 113 206 202 186 211 187 173 154 144 138 147 149 137 148 169 109 134 189 157 139 128 151 205 238 191 152 124 191 185 127 129 273 311 310 65 271 210 144 120 132 289 102 129 137 132 132 135 126 269 268 275 268 261 300 327 267 255 277 265 245 246 254 254 233 255 292 303 268 218 157 251 256 249
210 201 193 192 190 186 180 167 154 145 145 151 151 131 112 180 211 149 147 211 211 71 97 117 114 131 146 148 183 175 105 171 183 137 118 122 142 211 241 232 174 100 111 152 145 166 189 281 228 174 203 192 176 170 162 148 153 178 155 135 150 157 163 211 216 216 256 280 302 308 259 201 223 272 252 252 273 288 291 290 287 261 247 256 255 248 258 268
220 217 205 204 207 207 201 182 165 158 158 154 134 115 173 198 216 123 159 199 182 63 54 97 114 132 162 78 231 194 155 195 177 126 147 166 169 195 196 205 198 135 127 160 194 164 160 256 244 251 165 167 176 194 149 118 119 228 122 112 179 186 154 155 194 182 186 308 293 253 235 213 209 276 276 271 283 289 290 298 292 259 253 265 267 262 263 266
214 216 213 216 217 218 218 202 180 176 175 149 116 183 198 193 188 176 171 157 149 130 107 91 90 129 174 167 221 224 226 116 152 139 181 195 203 200 195 212 196 176 162 158 175 159 129 272 276 341 16 174 164 168 147 132 175 180 137 182 219 176 124 113 242 66 82 258 270 217 251 282 326 290 280 281 285 290 294 296 293 282 277 278 277 276 273 263
203 205 211 218 219 222 219 205 193 194 188 149 146 205 190 99 184 183 213 116 137 137 128 138 148 143 168 178 196 208 209 103 148 164 194 203 233 197 197 246 197 186 192 167 180 195 148 245 290 85 192 262 68 124 88 54 122 129 179 209 201 92 87 107 205 344 37 249 272 257 247 279 317 271 305 13 273 265 284 298 300 294 284 279 279 282 282 275
194 196 205 213 217 223 219 208 195 187 178 158 216 227 143 159 224 96 37 96 122 124 128 161 171 145 169 185 194 191 176 162 173 182 179 196 246 193 171 208 200 196 204 185 185 220 149 210 298 33 184 278 21 122 130 13 83 127 178 177 123 119 200 113 162 203 171 245 275 286 266 258 221 228 347 76 194 224 255 282 292 279 270 272 273 271 274 279
189 189 201 206 205 211 215 212 194 175 166 169 216 229 174 190 271 29 71 51 84 117 157 182 163 130 170 174 169 176 181 179 173 180 178 182 236 203 172 187 201 200 200 182 174 213 144 182 264 311 240 305 31 154 195 353 43 68 105 133 109 141 175 165 161 168 170 211 254 297 301 256 222 201 166 183 216 223 246 266 269 264 266 270 269 267 275 286
185 179 197 198 194 200 202 201 191 178 185 210 184 199 116 99 269 260 107 66 42 80 172 207 143 138 172 172 157 169 181 178 169 179 199 186 208 231 193 191 175 180 189 180 174 166 124 182 232 300 324 220 184 204 183 168 157 150 166 180 181 110 114 162 179 130 139 168 205 275 283 263 241 186 172 195 219 223 234 248 260 271 281 284 280 280 287 298
177 170 197 186 185 190 183 180 184 171 183 226 138 123 162 250 263 314 52 78 73 54 102 143 132 146 155 161 183 179 160 159 173 182 203 196 200 221 214 205 169 144 152 168 192 194 163 166 175 182 267 204 224 239 194 184 182 173 184 196 188 164 130 158 232 262 116 172 181 180 273 272 242 181 182 195 210 219 222 222 246 280 298 302 298 296 299 311
170 165 183 175 179 184 175 163 149 123 119 211 193 159 169 218 275 150 39 51 50 15 63 100 117 150 126 139 181 168 150 157 181 187 201 209 199 186 207 270 188 159 147 160 207 192 148 111 135 188 213 216 241 262 231 221 222 168 190 194 179 163 142 157 208 234 183 222 182 125 275 275 240 173 194 199 198 202 204 212 243 291 303 315 357 34 3 334
166 154 157 169 180 181 174 162 142 145 152 184 172 162 171 186 214 170 190 173 133 255 221 136 179 166 136 138 138 136 156 173 183 187 204 222 200 181 17 7 177 164 154 170 216 160 135 111 142 244 309 311 306 323 358 357 280 241 262 160 154 180 171 160 184 184 166 207 189 126 251 263 278 223 207 184 183 192 203 245 278 314 315 343 32 39 15 11
158 150 149 174 187 183 176 180 183 182 178 155 162 177 176 184 187 175 185 179 159 161 155 207 202 171 173 116 108 136 175 167 197 205 197 201 184 125 13 37 170 171 161 185 180 170 180 176 146 152 327 327 332 331 321 338 197 206 230 190 186 184 156 124 129 146 196 217 190 180 240 251 291 352 61 70 49 49 58 30 321 338 343 2 37 46 38 20
149 154 169 193 194 188 189 236 178 176 177 164 176 184 170 184 198 191 190 180 175 174 162 217 208 151 137 96 79 106 174 138 173 256 98 16 238 338 17 48 147 164 146 108 168 173 179 192 165 165 198 216 216 216 219 215 158 200 219 202 200 186 169 166 153 165 220 225 190 191 240 248 255 297 338 3 11 10 6 6 352 6 25 39 37 34 9 344
156 184 195 201 203 198 211 230 191 162 179 180 184 182 179 192 205 195 192 183 186 188 177 188 178 131 131 153 146 210 214 116 104 86 97 253 273 305 24 49 89 116 105 91 133 156 150 209 198 192 210 215 207 213 204 149 151 202 219 196 196 197 185 172 157 191 216 222 212 223 237 251 256 242 251 297 317 332 311 303 303 314 323 323 320 314 308 312
157 211 173 164 211 217 223 218 197 172 168 177 178 178 187 192 172 189 197 193 189 189 182 165 172 166 182 182 171 200 204 119 105 151 172 203 254 285 349 26 52 81 87 89 123 137 125 233 219 209 225 223 183 190 188 163 177 202 208 197 196 197 185 182 203 215 208 199 239 239 224 241 259 250 236 259 265 243 260 272 280 291 297 295 293 296 299 301
167 240 182 164 177 210 225 206 191 184 168 175 182 170 180 191 185 182 196 197 180 183 189 211 198 195 188 178 174 185 176 166 199 204 179 188 235 301 320 302 321 5 63 68 69 114 144 224 229 200 226 222 120 134 166 176 190 202 204 206 202 195 188 196 214 219 199 189 236 242 209 215 254 259 229 231 247 237 245 259 266 273 282 287 291 293 292 290
202 263 233 211 190 137 318 166 164 174 185 179 185 179 177 190 198 192 170 140 170 194 198 207 207 205 197 182 178 183 178 183 208 211 194 188 194 177 211 260 281 354 45 80 27 75 155 217 232 140 183 233 192 173 136 147 153 243 217 211 203 202 203 205 217 223 216 218 241 252 241 237 252 260 193 239 254 255 256 263 265 268 277 283 284 282 282 285
202 223 232 251 234 20 25 133 153 170 192 185 198 206 191 194 199 196 170 166 182 187 194 213 214 196 196 197 191 201 202 192 201 207 184 174 183 174 207 218 168 20 21 72 23 18 161 204 68 98 21 268 209 199 151 146 169 232 248 237 214 206 211 220 230 233 230 241 251 260 270 264 256 250 267 264 260 252 254 255 257 267 275 277 276 276 279 286
196 202 211 357 16 196 169 136 148 158 183 191 203 201 202 211 199 183 187 199 196 174 182 209 214 180 187 206 207 219 215 201 213 217 183 180 194 186 188 195 160 138 23 130 143 49 124 187 63 84 248 248 189 185 190 159 146 246 257 248 229 204 190 212 225 218 212 225 240 250 258 261 254 196 267 273 260 229 252 254 254 267 276 277 279 282 287 293
200 202 210 221 14 193 191 131 146 175 197 203 209 203 202 212 182 162 191 214 206 202 201 202 197 174 186 205 213 223 222 214 225 233 210 208 213 200 195 197 179 169 173 151 158 156 139 150 131 132 215 246 187 166 162 125 119 252 247 235 224 212 202 217 230 224 210 206 220 233 240 256 266 198 251 276 270 248 266 269 263 271 278 283 288 293 298 299